Williams, AZ

1:26 AM MST on February 24, 2017 (GMT -0700)
Grand Canyon National Park

Weather History for KGCN - October, 2011

Change the Weather History Date:

Thursday, October 27, 2011

  Actual Average Record
Temperature  
Mean Temperature 36 °F -  
Max Temperature 53 °F 55 °F 75 °F (2008)
Min Temperature 19 °F 25 °F 13 °F (1989)
Degree Days  
Heating Degree Days 29    
Moisture  
Dew Point 20 °F    
Average Humidity 60    
Maximum Humidity 89    
Minimum Humidity 26    
Precipitation  
Precipitation 0.00 in - - ()
Sea Level Pressure  
Sea Level Pressure 30.14 in    
Wind  
Wind Speed 4 mph (NE)    
Max Wind Speed 12 mph    
Max Gust Speed 18 mph    
Visibility 10 miles    
Events      
Averages and records for this station are not official NWS values.
T = Trace of Precipitation, MM = Missing Value Source: NWS Daily Summary

Daily Weather History Graph

Daily Weather History Graph

Search for Another Location

Airport or City:

Trip Planner

Search our weather history database for the weather conditions in past years. The results will help you decide how hot, cold, wet, or windy it might be!

Date:

Astronomy

Oct. 27, 2011 Rise Set
Actual Time 6:46 AM MST 5:38 PM MST
Civil Twilight 6:19 AM MST 6:04 PM MST
Nautical Twilight 5:49 AM MST 6:34 PM MST
Astronomical Twilight 5:19 AM MST 7:04 PM MST
Moon 7:49 AM MST (10/27) 6:15 PM MST (10/27)
Length of Visible Light 11h 44m
Length of Day
10h 52m
New Moon, 1% of the Moon is Illuminated
Oct 27
New Moon
Nov 2
First Quarter
Nov 10
Full
Nov 18
Last Quarter
Nov 24
New

Hourly Weather History & Observations

Time (MST) Temp. Windchill Dew Point Humidity Pressure Visibility Wind Dir Wind Speed Gust Speed Precip Events Conditions
12:54 AM 28.4 °F - 24.8 °F 86% 30.11 in 10.0 mi Calm Calm - N/A   Clear
1:54 AM 24.1 °F 17.0 °F 21.0 °F 88% 30.09 in 10.0 mi NNE 5.8 mph - N/A   Clear
2:54 AM 23.0 °F 14.7 °F 19.9 °F 88% 30.09 in 10.0 mi NE 6.9 mph - N/A   Clear
3:54 AM 21.9 °F - 19.0 °F 89% 30.09 in 10.0 mi Calm Calm - N/A   Clear
4:54 AM 28.0 °F 21.7 °F 21.0 °F 75% 30.09 in 10.0 mi East 5.8 mph - N/A   Clear
5:54 AM 23.0 °F - 19.0 °F 85% 30.14 in 10.0 mi Calm Calm - N/A   Clear
6:54 AM 19.9 °F - 17.1 °F 89% 30.19 in 10.0 mi Calm Calm - N/A   Clear
7:54 AM 28.0 °F - 21.9 °F 78% 30.17 in 10.0 mi Calm Calm - N/A   Clear
8:54 AM 37.9 °F 32.1 °F 21.0 °F 51% 30.16 in 10.0 mi ENE 8.1 mph 18.4 mph N/A   Clear
9:54 AM 41.0 °F 34.7 °F 21.0 °F 45% 30.17 in 10.0 mi East 10.4 mph - N/A   Clear
10:54 AM 45.0 °F 39.3 °F 21.9 °F 40% 30.16 in 10.0 mi NE 11.5 mph - N/A   Clear
11:54 AM 46.9 °F - 21.9 °F 37% 30.12 in 10.0 mi NNE 9.2 mph - N/A   Clear
12:54 PM 50.0 °F - 21.9 °F 33% 30.09 in 10.0 mi NNE 9.2 mph - N/A   Clear
1:54 PM 51.1 °F - 19.9 °F 29% 30.08 in 10.0 mi South 5.8 mph - N/A   Clear
2:54 PM 53.1 °F - 21.0 °F 29% 30.08 in 10.0 mi NE 6.9 mph - N/A   Clear
3:54 PM 53.1 °F - 19.0 °F 26% 30.08 in 10.0 mi NE 6.9 mph - N/A   Clear
4:54 PM 50.0 °F - 19.0 °F 29% 30.09 in 10.0 mi NE 6.9 mph - N/A   Clear
5:54 PM 42.1 °F 38.4 °F 16.0 °F 35% 30.15 in 10.0 mi NNE 5.8 mph - N/A   Clear
6:54 PM 33.1 °F - 17.1 °F 52% 30.23 in 10.0 mi Calm Calm - N/A   Clear
7:54 PM 28.9 °F - 18.0 °F 64% 30.22 in 10.0 mi Calm Calm - N/A   Clear
8:54 PM 26.1 °F - 19.0 °F 75% 30.21 in 10.0 mi Calm Calm - N/A   Clear
9:54 PM 25.0 °F - 18.0 °F 75% 30.22 in 10.0 mi Calm Calm - N/A   Clear
10:54 PM 28.0 °F - 19.0 °F 69% 30.19 in 10.0 mi Calm Calm - N/A   Clear
11:54 PM 25.0 °F 20.7 °F 18.0 °F 75% 30.21 in 10.0 mi NE 3.5 mph - N/A   Clear